Wetbulb
77.48 77.97 77.36 77.37 76.97 77.87 78.46 79.10 79.21 79.24 80.17 79.36 79.11 78.18 77.57 77.70 78.79 80.06 79.98 78.85 78.79 78.92 78.95 78.11 78.95 80.34 75.97 74.87 74.50 74.00 72.96 72.50 69.67 71.16 72.49 76.46 80.06 79.06 78.12 78.29 76.50 77.57 75.56
77.17 77.98 77.56 78.30 77.45 76.97 77.66 78.36 79.94 79.62 79.57 80.00 79.26 79.02 77.76 77.34 78.98 79.49 77.68 77.90 77.22 77.50 78.12 79.17 77.40 76.36 79.38 79.37 76.42 79.70 76.42 77.32 72.30 74.72 74.79 74.37 77.41 78.82 78.81 79.11 76.25 75.93 76.19
76.76 76.30 77.38 77.44 77.77 77.13 78.14 78.49 79.35 79.71 79.87 78.02 79.12 79.43 78.57 77.77 78.59 79.63 79.83 78.71 78.43 78.34 78.53 78.72 78.50 78.99 79.57 77.29 78.71 76.01 75.00 76.30 76.02 74.07 74.34 76.01 76.53 76.33 77.27 79.01 78.88 78.43 77.28
75.20 75.20 76.22 77.12 77.55 77.31 78.40 78.88 79.03 79.74 79.76 79.40 79.95 79.78 79.08 78.37 78.15 77.92 78.66 78.85 79.05 78.21 78.76 78.82 79.04 79.18 79.67 80.22 78.92 80.17 78.74 77.47 76.08 74.91 74.58 74.67 75.40 78.08 76.95 74.76 74.81 76.59 76.18
76.25 75.65 76.34 77.92 78.11 78.34 77.82 78.97 79.16 79.64 79.70 80.16 80.05 79.84 79.82 78.16 76.61 77.96 78.47 78.63 79.04 78.28 78.79 78.72 78.82 78.05 73.31 76.09 77.81 79.22 79.33 77.66 75.58 74.78 74.30 74.52 74.36 74.21 75.22 75.94 74.74 76.34 78.15
76.87 75.74 76.79 78.02 78.18 78.02 78.23 78.49 79.38 79.49 79.83 79.92 79.81 79.74 79.25 76.75 69.60 67.48 74.64 77.22 78.21 78.62 78.44 79.39 79.65 75.19 74.05 69.57 68.73 69.17 73.40 78.26 78.77 75.44 74.51 73.85 76.28 76.29 76.51 75.99 76.67 75.29 74.61
77.74 77.22 77.43 78.01 77.89 78.02 78.26 78.76 79.04 79.36 80.15 79.97 79.79 79.81 79.55 79.79 66.38 65.15 67.35 76.13 77.34 77.92 78.50 79.23 78.43 76.23 75.69 79.46 71.59 68.61 69.10 67.28 68.58 76.05 75.94 76.48 76.65 78.20 79.10 78.64 76.81 76.67 76.30
77.19 78.77 77.97 78.56 78.34 78.77 78.90 78.64 79.19 79.57 79.55 79.52 79.69 80.00 80.07 79.60 66.54 63.13 65.64 76.68 76.56 77.38 78.82 79.19 79.14 78.88 79.00 79.06 79.75 78.88 78.54 78.79 77.67 75.36 76.37 77.16 78.48 79.25 79.19 78.61 78.65 78.00 78.07
78.31 77.72 78.81 78.75 78.69 78.83 78.62 78.96 79.48 79.63 79.52 79.39 79.93 80.11 80.17 79.79 64.79 62.85 66.09 76.35 76.24 77.53 78.15 78.26 78.58 79.44 73.04 67.21 77.56 76.95 77.39 77.88 72.52 64.57 65.62 66.36 66.40 66.10 69.86 74.34 72.90 74.11 74.64
78.31 78.43 79.36 79.43 79.47 79.16 79.46 79.66 80.03 80.21 79.70 78.44 79.21 80.32 75.87 80.39 66.34 61.39 66.15 75.88 76.10 75.64 78.22 78.90 68.55 74.04 66.80 63.09 77.18 77.70 76.68 77.58 78.29 77.94 78.56 75.05 67.50 71.69 64.61 72.88 76.36 74.95 75.25
78.49 79.27 79.88 79.85 79.87 80.23 80.45 80.45 80.28 79.89 78.68 79.52 79.43 79.94 80.27 78.54 78.96 60.71 59.38 76.74 75.56 75.28 75.18 75.23 76.28 64.14 62.15 61.03 61.62 77.20 76.40 77.11 75.58 77.52 77.71 78.26 79.17 80.21 80.30 79.25 79.83 79.05 76.74
78.99 78.84 79.39 80.08 79.04 79.23 80.17 80.34 80.31 80.08 79.24 79.91 79.28 79.37 78.62 80.82 68.68 61.18 58.51 61.86 70.80 76.43 76.00 74.39 75.36 60.66 58.07 59.01 61.86 63.86 61.56 63.65 74.99 75.56 76.07 76.44 76.89 76.88 77.96 80.30 81.16 80.72 79.56
79.13 78.80 79.22 79.79 79.77 79.91 79.52 79.64 78.38 79.35 77.18 76.79 76.62 75.93 76.10 77.19 78.66 61.92 57.90 58.40 61.08 72.76 76.59 70.49 62.15 58.23 55.54 58.59 57.00 59.70 59.42 74.45 75.44 75.69 76.18 77.06 77.88 78.26 80.17 79.14 78.71 78.09 76.85
78.82 79.19 79.19 78.87 78.53 79.28 78.37 78.20 77.10 76.58 76.56 76.48 76.33 76.22 75.78 76.02 76.07 77.92 73.57 67.04 61.15 66.76 69.17 73.67 71.53 66.91 61.50 68.32 72.50 67.47 74.49 76.97 76.77 77.05 77.27 77.51 77.79 77.75 76.92 76.55 73.88 74.15 74.20
78.13 77.86 78.29 77.19 77.18 78.04 78.21 77.79 77.14 78.15 74.11 76.23 75.24 75.31 74.87 75.98 76.38 72.24 73.37 77.70 76.24 72.13 73.24 76.16 75.65 75.73 76.02 76.81 77.59 77.93 77.92 78.38 76.75 77.45 76.63 76.91 76.02 74.41 73.59 75.28 74.44 74.43 73.31
75.21 76.14 75.99 76.43 76.50 76.54 76.94 75.27 52.87 58.14 51.91 52.63 51.54 65.25 74.91 58.35 55.81 52.38 52.45 54.81 58.07 57.44 73.24 75.76 75.97 76.65 76.46 76.94 76.61 76.60 77.14 75.55 77.94 77.39 76.62 75.01 73.95 74.50 74.92 74.28 74.22 74.03 71.51
75.05 75.55 76.66 74.09 76.72 77.04 76.81 76.16 75.07 63.33 51.72 50.09 52.09 51.72 52.27 50.61 52.45 51.18 52.09 50.82 52.45 59.67 76.96 76.97 76.56 76.80 77.38 76.88 75.88 76.02 76.02 76.84 78.43 76.86 75.68 75.31 75.30 74.90 73.01 72.70 73.02 71.63 70.57
70.06 61.32 74.93 75.89 76.24 77.16 77.00 76.68 76.82 75.54 74.81 75.20 57.20 55.71 49.04 48.28 50.27 49.19 49.91 54.33 74.64 70.56 76.67 76.69 76.58 77.39 77.40 78.00 77.64 76.89 76.94 77.16 76.86 76.42 75.90 75.32 75.41 74.03 73.15 72.25 71.57 70.88 70.14
66.13 67.64 68.56 73.54 74.50 73.99 74.96 73.72 74.84 75.96 75.33 74.25 71.10 58.99 51.43 44.11 46.65 47.37 47.01 74.98 75.65 76.75 76.75 76.45 76.61 76.65 76.87 77.67 76.82 76.28 77.25 76.61 75.24 74.69 74.47 74.91 75.02 74.15 71.90 71.09 70.28 59.58 63.74
65.32 63.23 64.69 71.72 72.63 72.03 72.18 71.70 71.75 72.48 73.12 74.22 72.77 73.14 64.81 64.85 70.06 72.48 69.91 73.04 74.91 76.89 78.21 77.68 77.16 76.86 76.39 75.20 74.25 75.12 74.48 73.06 72.64 72.85 73.45 72.65 71.68 70.82 69.74 69.77 69.55 69.25 69.47
64.02 67.12 65.45 66.32 70.50 68.85 68.42 70.51 70.50 70.59 72.38 72.62 72.77 64.94 58.05 73.26 74.99 74.92 72.61 73.28 74.51 73.79 73.35 75.10 72.56 72.61 73.14 71.80 73.19 72.87 72.77 72.82 73.15 72.09 70.88 70.63 70.08 69.03 69.52 69.74 69.54 69.70 68.93
61.60 61.88 63.02 65.00 69.22 72.27 71.03 70.89 69.02 69.89 71.91 72.66 73.09 64.22 54.59 73.35 72.25 74.83 74.38 72.78 72.40 72.17 73.02 74.13 73.77 72.49 71.25 70.82 70.47 71.48 70.68 70.13 70.22 70.30 69.86 69.70 68.91 68.78 68.91 68.08 68.31 67.26 66.58
59.72 60.43 61.85 64.47 66.86 63.84 69.77 70.15 69.93 70.90 70.73 71.14 73.55 73.00 71.31 68.53 68.49 68.38 69.07 70.25 69.47 69.15 69.55 70.74 71.34 69.00 68.48 68.38 68.03 67.80 66.79 67.68 68.48 67.99 67.12 66.82 66.48 66.99 66.97 66.38 66.20 65.96 65.73
54.55 53.25 54.91 56.91 57.77 61.87 62.70 64.62 69.35 62.30 65.68 66.51 68.07 70.38 69.95 68.46 66.44 65.11 63.43 63.17 63.39 63.74 64.24 64.01 63.42 62.86 63.13 63.77 63.63 63.44 55.34 53.72 54.75 59.11 63.22 65.20 66.10 64.53 65.88 65.84 65.66 66.40 65.82
47.65 47.85 47.47 47.05 50.52 50.00 50.97 52.55 54.88 54.54 55.59 56.57 57.95 58.21 58.90 61.72 63.39 62.48 62.21 61.89 60.78 60.39 58.94 58.29 57.96 56.94 54.42 52.07 51.73 50.49 39.82 33.03 44.05 41.05 53.67 61.92 64.86 65.77 65.94 65.73 66.56 66.11 65.69
43.01 43.15 43.49 43.49 43.36 43.20 43.01 42.80 42.15 42.70 43.56 44.53 44.41 44.24 46.11 49.37 51.43 53.40 53.91 52.45 52.58 51.06 48.95 50.16 49.90 50.07 48.87 46.53 43.12 35.92 31.51 32.52 40.66 32.71 47.57 58.14 62.16 64.79 64.02 63.78 65.31 65.80 65.02
MSLP
1010.04 1010.71 1011.44 1012.22 1013.04 1013.82 1014.05 1014.46 1014.95 1015.25 1015.43 1015.85 1016.12 1016.43 1016.79 1017.07 1017.35 1017.66 1017.80 1017.62 1018.21 1018.66 1018.53 1018.47 1018.77 1018.86 1018.47 1017.90 1018.06 1018.17 1018.11 1018.06 1017.84 1017.49 1017.13 1016.89 1017.06 1017.47 1017.40 1017.48 1017.54 1017.28 1016.94
1008.69 1009.68 1010.47 1011.22 1011.89 1012.58 1013.26 1013.80 1014.31 1014.86 1015.22 1015.42 1015.91 1016.11 1016.40 1016.62 1016.88 1017.23 1017.52 1017.34 1017.67 1017.76 1018.06 1018.32 1018.49 1018.56 1018.83 1018.68 1018.33 1017.98 1017.82 1017.78 1017.80 1017.56 1017.41 1017.24 1017.08 1016.89 1016.64 1016.69 1016.75 1016.68 1016.30
1007.62 1008.47 1009.37 1010.08 1010.74 1011.28 1012.13 1012.88 1013.51 1014.12 1014.62 1014.91 1015.26 1015.62 1015.90 1016.12 1016.41 1016.69 1017.00 1017.19 1017.20 1017.36 1017.56 1017.76 1017.92 1018.11 1018.21 1018.18 1018.07 1017.88 1017.54 1017.60 1017.64 1017.42 1017.00 1016.71 1016.37 1016.26 1016.02 1015.92 1015.82 1015.52 1015.40
1006.26 1007.18 1008.02 1008.74 1009.43 1010.34 1011.04 1011.90 1012.52 1013.16 1013.78 1014.22 1014.49 1014.89 1015.30 1015.61 1015.86 1016.11 1016.36 1016.68 1016.78 1016.83 1016.96 1017.16 1017.34 1017.44 1017.60 1017.83 1017.99 1017.93 1017.84 1017.67 1017.31 1017.02 1016.54 1016.09 1015.65 1015.30 1015.12 1014.86 1014.54 1014.21 1013.94
1004.94 1005.85 1006.57 1007.58 1008.56 1009.40 1010.22 1010.92 1011.69 1012.24 1012.80 1013.32 1013.76 1014.11 1014.54 1014.87 1015.05 1015.41 1015.66 1015.89 1016.20 1016.34 1016.35 1016.52 1016.73 1016.84 1016.98 1017.23 1017.32 1017.21 1017.26 1017.22 1016.92 1016.50 1015.92 1015.43 1014.95 1014.58 1014.51 1014.44 1014.36 1013.93 1013.38
1003.77 1004.57 1005.52 1006.73 1007.66 1008.30 1009.17 1010.02 1010.79 1011.36 1011.92 1012.48 1012.82 1013.22 1013.64 1013.84 1013.90 1014.42 1014.94 1015.19 1015.40 1015.59 1015.73 1015.88 1016.01 1016.11 1016.42 1016.70 1016.98 1017.16 1017.20 1017.26 1016.99 1016.53 1015.92 1015.45 1015.18 1015.14 1014.81 1014.61 1014.34 1014.03 1012.99
1003.06 1004.02 1004.88 1005.81 1006.63 1007.40 1008.17 1009.05 1009.78 1010.49 1011.13 1011.56 1012.01 1012.36 1012.70 1013.13 1013.31 1013.74 1014.25 1014.59 1014.64 1014.86 1015.04 1015.21 1015.32 1015.16 1015.46 1015.81 1016.04 1016.30 1016.44 1016.45 1016.54 1016.60 1016.26 1015.83 1015.36 1015.34 1015.17 1014.88 1014.80 1014.36 1013.62
1002.28 1003.01 1004.08 1004.93 1005.83 1006.68 1007.47 1008.06 1008.80 1009.48 1010.06 1010.63 1011.09 1011.48 1011.85 1012.20 1012.75 1013.29 1013.74 1014.09 1014.16 1014.18 1014.18 1014.39 1014.69 1014.76 1014.88 1014.96 1015.09 1015.16 1015.24 1015.20 1015.26 1015.48 1015.44 1015.27 1015.17 1015.05 1014.92 1014.58 1014.26 1014.04 1013.52
1001.32 1002.10 1002.73 1003.74 1004.85 1005.86 1006.54 1007.13 1007.80 1008.53 1009.15 1009.57 1010.05 1010.61 1011.02 1011.39 1011.84 1012.49 1013.28 1013.57 1013.56 1013.61 1013.64 1013.80 1013.91 1014.02 1014.26 1014.68 1014.99 1014.75 1014.62 1014.27 1013.88 1014.25 1014.26 1014.16 1014.16 1014.17 1014.18 1014.29 1014.01 1013.73 1012.57
1000.24 1000.85 1002.16 1003.24 1004.07 1004.90 1005.59 1006.20 1006.83 1007.50 1007.95 1008.48 1008.95 1009.50 1010.08 1010.58 1011.11 1011.66 1012.34 1012.63 1012.53 1012.64 1012.83 1012.98 1013.22 1013.44 1013.67 1014.01 1014.22 1014.14 1013.90 1013.80 1013.68 1013.28 1013.34 1013.62 1013.55 1013.31 1013.52 1013.65 1013.22 1012.94 1012.40
1000.15 1000.98 1001.84 1002.68 1003.37 1004.22 1005.15 1005.84 1006.25 1006.69 1007.08 1007.74 1008.03 1008.42 1009.00 1009.55 1010.04 1010.67 1011.36 1011.82 1011.54 1011.44 1011.45 1011.34 1011.56 1012.00 1012.59 1013.00 1013.30 1013.44 1013.28 1013.36 1013.20 1013.06 1012.80 1012.67 1012.36 1012.09 1012.14 1011.87 1012.02 1012.15 1012.16
999.42 1000.26 1001.04 1001.99 1002.82 1003.54 1004.38 1005.04 1005.65 1006.18 1006.68 1006.81 1007.35 1007.43 1007.72 1008.40 1009.01 1009.65 1010.28 1010.78 1010.89 1010.72 1010.41 1010.11 1010.37 1010.70 1011.16 1011.69 1012.24 1012.70 1012.80 1013.03 1013.06 1012.64 1012.24 1011.98 1011.64 1011.27 1010.78 1011.14 1011.02 1011.31 1011.54
998.97 999.85 1000.53 1001.38 1002.20 1002.64 1003.57 1004.36 1004.98 1005.54 1005.70 1006.20 1006.33 1006.70 1006.60 1006.75 1007.74 1008.44 1009.22 1009.69 1010.08 1010.51 1010.18 1010.00 1010.48 1010.60 1010.92 1011.47 1011.75 1012.05 1012.32 1012.41 1012.06 1011.68 1011.27 1010.82 1010.32 1010.50 1011.13 1011.26 1011.26 1011.43 1011.38
998.93 999.61 1000.18 1000.83 1001.58 1002.17 1002.86 1003.62 1004.04 1004.28 1004.87 1004.72 1005.18 1005.24 1005.58 1005.86 1005.92 1006.41 1007.96 1009.18 1009.52 1009.87 1010.00 1009.92 1009.93 1010.24 1010.58 1010.62 1010.81 1011.35 1011.56 1011.34 1010.92 1010.54 1010.21 1010.02 1010.56 1010.85 1011.13 1011.31 1011.40 1011.22 1010.73
998.91 999.32 999.82 1000.42 1001.13 1001.53 1001.79 1002.27 1002.85 1003.00 1003.58 1004.26 1004.22 1004.45 1004.52 1004.84 1004.91 1005.16 1005.58 1007.07 1007.91 1008.36 1008.90 1009.14 1009.06 1009.24 1009.41 1009.56 1009.62 1009.94 1010.29 1010.16 1010.23 1010.02 1009.91 1009.85 1010.56 1011.00 1010.98 1010.80 1010.80 1010.42 1009.92
998.97 999.06 999.11 999.39 1000.31 1000.58 1001.15 1002.42 1003.21 1003.06 1004.08 1004.50 1004.94 1004.96 1004.74 1005.57 1005.38 1005.62 1005.66 1006.41 1007.01 1007.27 1008.28 1007.85 1007.69 1007.72 1007.82 1008.03 1008.55 1009.16 1009.44 1009.55 1009.62 1009.77 1009.87 1010.12 1010.31 1010.30 1010.20 1010.36 1010.24 1009.61 1009.05
999.51 999.02 998.66 998.84 999.26 999.69 1000.37 1001.11 1002.38 1004.30 1004.38 1004.58 1004.91 1005.28 1005.30 1005.92 1006.19 1006.44 1007.32 1007.34 1007.18 1007.40 1007.20 1006.91 1006.78 1006.56 1007.18 1007.92 1008.36 1008.91 1009.04 1009.07 1009.16 1009.53 1009.62 1009.70 1009.70 1009.82 1009.91 1009.80 1009.18 1008.81 1008.60
1000.66 999.79 999.05 999.13 998.60 999.13 999.78 1000.18 1000.95 1002.44 1003.46 1003.90 1004.81 1005.57 1005.68 1006.04 1006.52 1007.04 1007.02 1007.44 1006.93 1007.54 1007.11 1006.57 1006.18 1006.05 1006.36 1006.77 1007.61 1008.16 1008.48 1008.58 1008.88 1008.99 1009.10 1009.10 1009.14 1009.12 1008.82 1008.58 1008.44 1008.44 1008.44
1001.86 1001.53 1000.95 1000.28 999.99 999.95 1000.56 1001.09 1000.99 1001.60 1002.76 1003.97 1005.15 1005.94 1006.71 1006.53 1005.73 1006.92 1007.50 1007.42 1006.56 1006.10 1006.15 1006.57 1006.74 1006.70 1007.01 1007.18 1007.64 1007.99 1008.09 1008.30 1008.50 1008.67 1008.66 1008.45 1008.32 1008.28 1008.15 1008.25 1008.30 1008.49 1008.66
1002.73 1001.95 1001.24 1001.22 1001.26 1001.76 1001.76 1002.02 1001.96 1002.16 1003.12 1003.40 1002.74 1004.38 1003.94 1007.88 1003.74 1005.40 1007.16 1007.25 1006.90 1006.02 1006.03 1005.85 1006.10 1006.36 1006.78 1007.28 1007.55 1007.78 1008.05 1008.44 1008.48 1008.30 1008.07 1008.04 1007.90 1007.99 1008.14 1008.10 1008.17 1007.97 1008.07
1003.92 1003.28 1002.83 1002.44 1002.15 1001.96 1002.09 1002.88 1002.07 1001.46 1002.34 1003.65 1002.50 1002.13 1004.55 1005.95 1004.90 1005.98 1006.64 1006.35 1006.43 1005.94 1006.17 1006.34 1006.66 1007.22 1007.22 1007.29 1007.46 1007.50 1007.41 1007.58 1007.43 1007.58 1007.71 1007.80 1008.04 1008.18 1008.26 1008.19 1008.12 1007.91 1008.00
1004.50 1003.78 1002.90 1002.08 1001.45 1000.84 1001.57 1002.14 1001.55 1000.05 1003.10 1003.41 1003.73 1002.80 1004.49 1004.55 1003.83 1004.32 1005.22 1005.76 1005.55 1005.89 1006.43 1006.24 1006.20 1006.80 1007.26 1007.30 1007.66 1007.61 1007.49 1007.58 1007.64 1007.62 1007.71 1007.96 1008.36 1008.21 1008.05 1008.50 1008.35 1008.48 1008.76
1005.68 1005.11 1004.36 1003.18 1003.48 1002.33 1001.40 1000.51 1000.54 1001.65 1001.82 1001.39 1001.60 1002.60 1002.46 1003.17 1004.44 1005.28 1005.40 1005.75 1006.46 1007.14 1007.44 1007.22 1007.25 1007.91 1008.14 1008.03 1008.13 1008.30 1008.18 1008.10 1008.32 1008.56 1008.71 1008.90 1009.06 1008.85 1008.68 1008.67 1008.71 1008.58 1008.52
1007.09 1006.46 1006.71 1006.86 1006.44 1005.04 1004.16 1003.77 1002.18 1003.54 1003.54 1003.43 1002.54 1002.12 1003.53 1005.22 1006.30 1006.66 1007.28 1007.96 1008.39 1008.72 1008.70 1008.59 1009.11 1009.29 1009.26 1008.92 1009.03 1008.97 1010.27 1010.56 1010.32 1009.67 1009.30 1008.86 1008.71 1008.75 1008.75 1008.64 1008.59 1008.20 1008.23
1009.55 1008.80 1009.56 1009.20 1008.06 1008.24 1007.60 1007.43 1007.26 1007.05 1006.66 1006.50 1006.38 1006.98 1007.32 1007.46 1007.74 1008.69 1008.98 1009.16 1009.50 1009.46 1009.52 1010.16 1010.28 1010.58 1011.19 1011.62 1011.62 1011.53 1011.89 1011.82 1011.31 1010.88 1010.02 1009.24 1008.60 1008.33 1008.29 1008.03 1007.89 1007.82 1007.74
1011.63 1011.27 1011.28 1011.43 1010.92 1009.66 1010.02 1009.85 1009.99 1009.94 1010.14 1010.25 1010.23 1010.54 1010.56 1010.60 1011.12 1011.62 1012.21 1012.03 1011.22 1011.03 1011.51 1011.74 1011.72 1011.84 1012.23 1012.60 1012.64 1012.50 1012.30 1011.98 1011.28 1010.92 1010.22 1009.24 1008.67 1008.12 1007.98 1007.93 1007.62 1007.68 1007.62
Wind_Speed
21 20 20 18 19 17 13 13 12 11 9 10 9 10 11 11 10 9 10 6 11 9 8 6 8 7 8 6 7 6 6 6 8 7 7 6 4 6 7 7 9 10 10
22 20 20 19 19 19 17 16 13 13 12 11 11 11 11 11 11 11 12 11 10 10 11 9 10 9 9 9 9 7 6 6 7 8 8 9 9 9 9 9 8 9 10
22 23 21 21 20 19 19 17 16 14 13 15 13 12 12 12 11 12 12 12 11 12 11 10 10 10 9 9 8 9 9 8 9 10 9 9 8 9 9 9 9 10 10
24 24 23 22 21 20 17 18 17 16 15 15 14 13 13 13 13 13 13 13 12 12 11 11 11 12 11 10 10 9 9 9 10 10 10 10 9 8 7 8 9 7 7
21 22 22 21 20 18 19 18 17 17 16 15 15 14 14 14 13 14 13 13 13 13 12 12 13 12 11 11 10 10 10 10 10 10 10 10 9 8 9 9 11 11 9
20 22 19 20 20 20 19 19 17 17 16 16 16 15 15 14 15 15 14 13 13 12 12 12 12 10 14 13 11 12 11 9 10 11 11 11 11 11 10 10 11 12 14
18 20 19 19 20 20 19 19 19 18 16 16 16 16 16 16 13 15 17 14 12 12 12 11 12 13 13 14 16 18 17 16 16 14 15 14 15 12 12 12 13 12 13
20 18 20 19 20 19 19 20 19 17 17 16 16 16 16 15 14 14 15 14 14 14 12 13 14 13 12 9 12 13 14 14 14 13 15 15 13 12 12 12 12 13 12
19 21 21 21 20 19 20 19 17 16 16 16 16 17 17 16 16 16 14 14 15 15 14 15 15 13 14 13 14 15 15 14 13 12 15 16 15 14 14 9 10 11 13
21 22 18 18 18 20 19 19 17 15 16 15 16 16 17 16 14 17 17 13 14 13 14 15 14 17 13 11 13 15 15 14 13 14 13 11 13 11 14 12 11 11 11
17 17 17 18 18 17 16 15 16 16 15 15 15 15 16 17 15 18 19 15 13 13 13 12 13 21 22 20 16 15 15 10 12 11 11 9 10 9 9 10 11 9 9
17 17 17 18 16 15 17 15 16 15 14 13 14 13 14 14 15 16 19 21 16 14 13 11 11 13 19 21 16 14 13 10 11 11 11 9 11 10 8 4 7 6 5
15 16 16 16 16 14 16 16 14 14 14 14 14 14 13 13 13 18 20 22 22 14 13 6 8 6 7 5 10 9 9 9 10 10 10 11 10 7 6 6 5 6 10
14 14 14 16 16 15 15 14 14 14 14 13 14 13 13 12 12 12 14 12 16 13 15 14 12 7 5 7 3 8 9 10 11 10 11 8 9 6 6 4 4 6 8
13 14 15 14 16 15 14 14 14 14 12 14 13 13 12 12 13 12 11 12 13 14 12 11 12 12 12 11 11 9 10 10 8 10 10 8 6 5 7 6 6 7 10
10 13 14 14 15 14 14 9 11 9 10 11 11 6 4 13 14 6 13 14 9 12 12 11 11 11 12 10 7 7 8 8 8 7 6 7 8 7 5 4 6 10 8
6 10 12 14 14 13 13 13 12 5 5 7 9 10 9 6 11 11 9 9 7 11 9 10 10 10 7 9 9 7 7 7 7 7 8 7 6 5 6 7 9 8 7
11 12 5 6 9 11 11 11 10 9 10 8 5 3 8 10 9 3 4 3 5 4 10 11 10 7 7 4 6 5 6 4 5 7 6 7 7 8 9 8 8 8 6
8 7 7 3 5 6 6 6 5 6 6 7 3 1 5 4 12 7 3 7 9 11 10 10 5 5 5 6 5 4 5 5 5 6 7 8 7 8 8 8 8 5 2
7 9 8 6 4 1 9 10 9 7 5 4 3 1 5 8 2 3 6 9 11 7 5 4 6 6 6 5 4 5 5 5 7 8 7 7 7 7 8 8 9 10 6
7 5 10 5 3 5 3 6 2 2 2 6 9 6 3 8 7 8 8 8 8 5 3 0 3 0 1 2 5 7 6 5 4 4 6 6 5 7 8 9 8 8 5
5 5 8 8 7 3 7 10 10 6 10 13 6 9 6 6 2 2 6 5 4 4 3 1 3 3 4 4 4 2 4 4 4 5 5 5 5 8 7 6 9 5 6
10 8 7 9 8 12 5 5 2 8 8 4 8 7 7 5 8 7 7 7 5 4 3 2 1 3 3 3 3 3 4 4 3 3 5 5 6 7 4 5 7 7 6
8 11 13 11 11 11 14 14 12 15 14 15 13 11 9 7 6 7 7 6 6 5 6 7 7 10 6 6 6 6 10 9 7 7 10 7 6 6 6 5 7 10 7
12 12 10 11 12 10 11 12 12 12 11 12 13 14 14 11 9 8 6 6 5 6 9 8 7 9 13 14 13 14 12 10 9 9 7 10 11 9 7 7 10 9 9
11 12 11 9 9 11 11 11 11 12 12 11 11 10 10 11 11 10 9 8 8 10 11 9 12 15 14 13 14 13 9 10 9 7 7 7 8 8 4 5 8 7 10
Wind_Direction
202 197 198 195 197 201 211 202 219 217 225 211 232 208 220 220 217 208 238 252 183 217 260 229 203 264 281 248 221 239 255 253 263 269 280 295 305 227 260 265 277 269 256
201 199 198 196 198 198 203 210 203 212 217 220 214 217 216 218 213 208 214 229 229 214 215 229 226 225 227 264 281 287 274 287 281 282 287 289 276 268 254 249 257 269 278
199 198 198 201 200 202 197 203 203 206 210 219 211 216 213 215 217 213 215 223 234 216 227 229 230 228 234 247 239 254 248 231 241 255 268 270 277 287 280 260 247 250 248
195 202 201 199 201 200 201 198 203 201 203 212 215 212 215 216 215 220 215 221 226 228 229 229 232 231 226 225 237 252 261 273 280 278 273 272 268 266 261 267 261 262 287
194 201 199 199 199 199 200 198 201 201 202 206 210 214 211 218 218 215 220 216 219 230 234 225 230 239 239 234 242 236 245 250 254 261 264 268 274 287 310 321 307 282 276
196 200 196 192 198 199 198 200 200 202 202 204 210 211 214 220 213 203 207 219 223 224 227 232 242 231 230 231 233 253 265 274 279 279 281 283 286 291 285 298 315 307 296
206 196 199 193 197 200 197 196 201 202 202 205 208 212 214 219 215 198 199 221 223 222 229 232 238 241 220 232 221 230 240 244 237 256 267 271 285 289 294 298 293 291 290
203 198 197 195 197 196 197 200 199 199 202 204 209 213 216 216 206 196 198 217 228 238 237 226 234 248 258 255 237 238 231 233 229 232 236 250 258 262 260 261 281 287 282
204 206 196 198 193 196 199 198 199 201 202 206 208 212 215 221 198 194 187 219 229 234 234 238 245 244 236 221 248 260 265 269 275 259 251 252 251 255 260 286 280 279 282
211 202 199 197 198 200 200 198 197 200 205 208 211 209 214 220 199 197 191 222 228 230 229 234 231 242 242 213 231 247 254 257 263 271 274 260 246 252 237 234 255 256 271
203 200 196 199 200 198 197 199 200 202 207 207 212 212 214 212 216 191 191 217 232 229 236 239 232 210 222 229 217 243 252 268 271 277 273 273 275 268 247 226 228 252 278
190 200 194 195 198 192 195 195 200 200 207 204 211 213 216 218 209 192 192 207 221 236 246 244 239 213 206 218 221 230 238 253 261 260 264 265 263 257 250 337 316 317 292
184 192 195 191 193 196 189 194 195 198 208 211 206 218 223 212 216 201 192 201 219 231 240 240 70 123 161 206 227 235 215 236 245 253 256 256 269 306 308 284 290 294 277
185 190 194 187 189 202 186 194 202 202 206 209 214 212 218 223 223 205 203 204 221 213 236 254 267 288 284 278 229 210 225 243 247 248 256 272 279 282 263 260 265 256 274
192 194 192 192 191 194 194 195 196 207 205 211 209 212 216 218 221 222 212 188 206 210 212 224 229 232 241 246 244 243 244 249 227 241 252 265 262 251 251 247 230 257 265
194 200 194 193 184 190 195 171 54 98 109 93 76 62 56 55 28 11 126 117 115 167 195 220 218 223 228 231 242 250 248 260 267 267 259 252 250 248 241 225 247 254 268
234 221 198 209 179 191 194 185 186 109 133 159 142 133 110 67 34 30 64 80 95 142 218 212 228 229 208 223 218 223 230 219 224 232 245 245 238 244 238 237 253 257 258
357 10 21 245 173 191 187 184 185 175 200 209 77 23 109 103 115 122 116 186 199 238 252 237 241 234 252 243 183 217 244 222 219 229 230 246 234 244 256 263 254 256 256
12 7 354 302 64 83 81 65 88 119 148 105 125 56 48 61 105 99 183 259 264 246 208 234 234 244 236 237 230 231 239 240 250 244 238 241 241 254 271 264 272 289 335
334 304 325 344 59 240 166 173 176 164 171 144 117 191 109 272 60 0 237 231 241 258 257 238 213 212 215 209 198 223 234 233 236 239 256 277 282 278 281 271 260 265 201
314 295 244 250 220 190 199 278 336 16 247 206 179 71 66 202 181 177 209 204 219 212 211 207 72 175 207 153 218 218 228 239 251 256 266 265 266 283 266 257 276 290 292
334 354 332 341 340 247 250 193 186 149 222 212 180 105 149 230 26 196 162 172 126 106 91 179 145 92 92 69 52 346 298 282 298 309 312 309 271 268 265 280 275 272 258
17 350 357 340 349 334 289 321 162 183 234 232 178 142 90 57 52 30 40 63 61 58 58 47 104 117 70 51 19 331 312 319 304 312 297 285 279 279 292 268 272 262 256
16 34 16 349 5 355 14 13 32 41 23 27 20 35 70 78 79 64 64 51 39 59 51 49 40 31 32 8 20 15 37 359 331 314 306 270 259 248 254 262 273 262 246
27 38 29 2 14 14 30 24 22 29 37 38 42 32 31 25 54 49 61 84 90 85 68 58 56 62 52 40 29 17 11 345 324 326 288 276 276 265 239 240 250 253 264
44 45 46 39 28 37 29 38 38 36 32 30 44 41 41 49 45 41 29 39 61 66 64 51 51 47 44 38 25 10 353 341 342 296 289 269 283 288 343 318 289 295 299